Regional Weather Roundup
Issued by NWS

Home | Current Version | Previous Version | Graphics & Text | Print | Product List | Glossary On
Versions: 1 2 3 4 5 6 7 8 9 10 11 12 13 14 15 16 17 18 19 20 21 22 23 24 25 26 27 28 29 30 31 32 33 34 35 36 37 38 39 40 41 42 43 44 45 46 47 48 49 50
000
ASUS43 KLSX 030457
RWRMO

WEATHER SUMMARY FOR MISSOURI
NATIONAL WEATHER SERVICE SPRINGFIELD MO
1200 AM CDT THU SEP 03 2015

NOTE: "FAIR" INDICATES FEW OR NO CLOUDS BELOW 12,000 FEET WITH NO
       SIGNIFICANT WEATHER AND/OR OBSTRUCTIONS TO VISIBILITY.
       CURRENT SKY AND/OR WEATHER CONDITIONS ARE NOT AVAILABLE FOR
       CHILLICOTHE AND FARMINGTON.

MOZ001>031-035>038-043-044-053-054-030600-
...NORTHERN AND WESTERN MISSOURI...

CITY           SKY/WX    TMP DP  RH WIND       PRES   REMARKS
KANSAS CTY INT PTCLDY    75  69  81 S10       29.96S
LEE`S SUMMIT   CLEAR     77  67  71 S7        29.98S
ST JOSEPH      CLEAR     77  70  79 S7        29.93S

$$
MOZ066>068-077>081-088>096-101>105-030600-
...SOUTHWEST MISSOURI...

CITY           SKY/WX    TMP DP  RH WIND       PRES   REMARKS
SPRINGFIELD    CLEAR     73  67  81 S8        30.02S
JOPLIN         CLEAR     75  68  78 SE6       30.00S

$$
MOZ032>034-039>042-045>050-055>058-069>072-030600-
...CENTRAL MISSOURI...

CITY           SKY/WX    TMP DP  RH WIND       PRES   REMARKS
COLUMBIA       NOT AVBL
JEFFERSON CITY CLEAR     73  67  81 E3        29.99R
ROLLA          CLEAR     72  67  84 S7        30.01F
SEDALIA        PTCLDY    72  67  84 S7        30.00S

$$
MOZ051-052-059>065-030600-
...EAST CENTRAL MISSOURI...

CITY           SKY/WX    TMP DP  RH WIND       PRES   REMARKS
ST LOUIS INTL  CLEAR     82  69  64 S6        30.00F

$$
MOZ072>076-082>087-097>100-106>115-030600-
...SOUTH CENTRAL AND SOUTHEAST MISSOURI...

CITY           SKY/WX    TMP DP  RH WIND       PRES   REMARKS
CAPE GIRARDEAU CLEAR     70  69  97 SE3       30.01F
POPLAR BLUFF   CLEAR     71  70  96 CALM      30.00F
WEST PLAINS    CLEAR     75  67  76 CALM      30.06S

$$



USA.gov is the U.S. government's official web portal to all federal, state and local government web resources and services.